Location: Monfort
(47.1967°N, 0.2115°W)
Time: 11:14:23
(UTC+00:00)

Cosmos 2058 - Pass Details

Date: 24 October 2020
Orbit: 562 x 584 km, 82.5° (Epoch: 27 November)

Event Time Altitude Azimuth Distance (km) Brightness Sun altitude
Rises 18:51:28 0° 353° (N) 2,768 6.5 -20.1°
Reaches altitude 10° 18:53:40 10° 356° (N) 1,866 5.6 -20.5°
Maximum altitude 18:57:46 68° 80° (E) 612 2.7 -21.2°
Enters shadow 18:57:49 67° 86° (E) 612 2.7 -21.2°
